GEOS 3

Satellite information

Favourite Embed

Satellite Type and Status

PAYLOADIN ORBIT

Key statistics

Satellite GEOS 3 at a glance.

Uptime

18350

Days in orbit

Revolutions

≈ 14.2

Per day

Orbit

SSO

Sun Synchronous Orbit

Inclination

115.0

Latest

Satellite identification and parameters

Extended collection of information and parameters for GEOS 3.

Object identification

Identified? True

Debris? False

Object name: GEOS 3

International designator: 1975-027A

Object number (NORAD): 7734

Object ID (CCSDS): 7734

Country: UNITED STATES OF AMERICA (US)

Current information (Y/N): Y

RCS size: LARGE

Orbital parameters

Period: 101.472 minutes

Inclination: 114.9949 deg

SMA: 7206.522 km

Apoapsis: 833.292 km

Periapsis: 823.481 km

RAAN: 46.5025 deg

Eccentricy: 0.0006807

Argument of periapsis: 249.5956 deg

Mean anomaly: 110.4391 deg

Mean motion: 14.1910394 rev/day

Mean motion (dot): -0.00000131 rev/day2

B* drag term: 0.000021566 1/REarth

Two-line elements (TLE)

Creation date: July 4, 2025, 2:26 p.m.

Reference frame: TEME

Reference center: EARTH

Epoch: July 4, 2025, 1:26 p.m. UTC

TLE line 0: 0 GEOS 3

TLE line 1: 1 7734U 75027A 25185.56003197 -.00000131 00000-0 21566-4 0 9994

TLE line 2: 2 7734 114.9949 46.5025 0006807 249.5956 110.4391 14.19103940600190

Live tracking on map

Real-time ground track for satellite GEOS 3.

In-orbit conjunctions

A list of the most updated potential collisions computed for object GEOS 3.

Target Orbit TCA Probability of collision Miss distance Type
COSMOS 1275 DEB LEO 2025-04-27 22:11:16 0.0005377763 388.0 (m) DEBRIS
THOR BURNER 2 R/B SSO 2025-04-02 12:31:55 0.0199573 45.0 (m) ROCKET BODY
FENGYUN 1C DEB SSO 2025-03-25 07:47:06 0.0001046954 962.0 (m) DEBRIS
COSMOS 2251 DEB LEO 2025-03-04 01:30:26 0.0001172817 737.0 (m) DEBRIS
NOAA 16 DEB SSO 2024-12-16 04:07:47 0.001133371 115.0 (m) DEBRIS

Associated space launch

Geodetic research satellite

GEOS 3 was lifted into orbit during the mission ‘Delta 1410 | Geos 3’, on board a Delta 1410 space rocket.

The launch took place on April 9, 1975, 11:58 p.m. from Space Launch Complex 2W.

For more information about the launch, click the button.

Launch to space Delta 1410 | Geos 3
Delta 1410 | Geos 3

Agency: N/A

Status: Launch Successful

Launch date: April 9, 1975, 11:58 p.m. UTC

Rocket: Delta 1410

Launch pad: Space Launch Complex 2W

Location: Vandenberg SFB, CA, USA

...

Latest news about this satellite

There are no fresh news available about this satellite. Check back as we update our databases every day.


Newsletter sign-up

Weekly statistics, charts and insights to help you stay on top of the space industry.